星链-5403 (STARLINK-5403 )

导读

STARLINK-5403是美国SpaceX公司星链星座的量产型低轨互联网通信卫星,于2022年12月28日发射。它采用平板设计,搭载氪工质霍尔推进器,配备Ku/Ka波段通信载荷与光学星间链路,具备自主避撞能力。卫星运行在近地轨道,旨在提供全球宽带互联网服务,寿命末期将主动离轨再入大气层焚毁。

Basic Information
目录编号:
54862
目录名称:
STARLINK-5403
国际标识:
2022-177AU
轨道中心:
EARTH
卫星名称:
星链-5403
卫星全名:
星链-5403 (STARLINK-5403 )
卫星状态:
在轨 (已飞行1354 天)
发射日期:
2022-12-28 UTC
国别 :
美国 (US)
星等 :
--
This satellite is enrolled in the Space Conjunction Data Service (SCDS) and the current flight risk assessment level is: No High Risk
Orbit Information
数据来源 国际轨道数据 AOE轨道数据
星历时间 2026-09-12T09:22:32+0800
20小时前
查看轨道信息
2026-09-09T22:00:00+0800
3天前
查看轨道信息
半长轴 6861.197km 6861.194km
偏心率 0.0001076 0.0001281
轨道倾角 43.002° 43.001°
近地点辐角 256.451° 226.572°
升交点赤经 149.049° 163.023°
平近点角 103.622° 192.411°
近地点 482.321km 482.178km
远地点 483.799km 483.936km
周期 94.267分钟 94.267分钟
每日圈数 15.275765 15.275775
Detailed Information
固有亮度:
5
最大亮度:
2.5
卫星平台:
Starlink v1.5
覆盖范围:
全球
运营商:
太空探索技术公司
运营商所在国:
美国
制造商(研发单位):
太空探索技术公司
制造商所在国:
美国
使用方式:
暂无
Satellite Introduction
星链(Starlink)计划是由太空探索技术公司(SpaceX)提出的一个巨型低轨卫星互联网星座项目,计划在2019年至2024年间在太空搭建由约1.2万颗卫星组成的“星链”网络,其中1584颗将部署在地球上空550千米处的近地轨道,并从2020年开始工作。该卫星仍在工作。
2D Orbit Map
3D Orbit Map
Orbit Altitude Analysis Chart
Orbit Inclination Analysis Chart
Orbit Comprehensive Analysis Chart
View Comprehensive Chart
Conjunction Data List
Event ID Objects TCA Miss Dist (km) Collision Risk Probability Collision Risk Index (CRI) Action
CDM_260915-014205-486206-650921
2026-09-15T
01:42:09+0000
1.163 km
极远距离
1.168783E-5 中风险 0.56
CDM_260915-023605-486206-800721
2026-09-15T
02:36:55+0000
2.901 km
极远距离
8.512464E-7 极低风险 0.34
Miss Distance Evolution Trend with All Objects
Collision Probability Evolution Trend with All Objects